User: anonymous   Login
Location: *
(58.7167°N, 26.1833°E)
Time: 02:57:35
(UTC+00:00)
Language:

Lacrosse 4 Rocket - Orbit

View from above orbital plane
View from above orbital plane
View from above satellite
View from above satellite

Ground track
Ground track

The orbit data is extracted from the following two-line orbital elements,

1 26474U 00047B   19292.81196243  .00000055  00000-0  15692-4 0  9998
2 26474  67.9957  20.7846 0051067 104.6455 256.0357 14.95869461 43186
Epoch (UTC): 19 October 2019 19:29:13
Eccentricity: 0.0051067
inclination: 67.9957°
perigee height: 544 km
apogee height: 615 km
right ascension of ascending node: 20.7846°
argument of perigee: 104.6455°
revolutions per day: 14.95869461
mean anomaly at epoch: 256.0357°
orbit number at epoch: 4318

The dashed part of the orbit path shows where the satellite is in the earth's shadow,  

DLR